Timestamp, Local Timestamp, ID, PM25, PM10, Co2, Temperature, Relative Humidity, Monitor ID, O3
2019-11-07T03:49:16Z,11/06/19 22:49,4026792,0.03,0.0,826,21.3,36.1,55,1.0
2019-11-07T03:50:32Z,11/06/19 22:50,4026799,0.03,0.0,821,21.3,36.0,55,2.0
2019-11-07T03:51:32Z,11/06/19 22:51,4026806,0.012,0.0,823,21.4,36.0,55,1.0
2019-11-07T03:52:46Z,11/06/19 22:52,4026816,0.03,0.0,814,21.4,36.0,55,1.0
2019-11-07T03:53:46Z,11/06/19 22:53,4026823,0.039,0.0,821,21.4,36.0,55,1.0
2019-11-07T03:55:03Z,11/06/19 22:55,4026830,0.038,0.001,824,21.4,36.0,55,1.0
2019-11-07T03:56:03Z,11/06/19 22:56,4026837,0.033,0.0,849,21.4,36.0,55,1.0
2019-11-07T03:57:03Z,11/06/19 22:57,4026844,0.039,0.0,849,21.5,36.0,55,1.0
2019-11-07T03:58:19Z,11/06/19 22:58,4026851,0.036,0.0,824,21.5,36.0,55,2.0
2019-11-07T03:59:19Z,11/06/19 22:59,4026858,0.066,0.0,832,21.5,36.0,55,2.0
2019-11-07T04:00:19Z,11/06/19 23:00,4026865,0.02,0.001,857,21.5,36.0,55,2.0
2019-11-07T04:01:19Z,11/06/19 23:01,4026872,0.027000000000000003,0.0,824,21.5,36.0,55,2.0
2019-11-07T04:02:19Z,11/06/19 23:02,4026878,0.039,0.0,834,21.5,35.9,55,2.0
2019-11-07T04:03:19Z,11/06/19 23:03,4026885,0.033,0.0,812,21.5,35.9,55,2.0
2019-11-07T04:04:19Z,11/06/19 23:04,4026891,0.036,0.0,800,21.5,35.9,55,3.0
2019-11-07T04:05:35Z,11/06/19 23:05,4026899,0.03,0.0,832,21.5,35.9,55,3.0
2019-11-07T04:06:35Z,11/06/19 23:06,4026907,0.027000000000000003,0.0,817,21.5,35.9,55,2.0
2019-11-07T04:07:35Z,11/06/19 23:07,4026914,0.027000000000000003,0.0,827,21.5,35.9,55,2.0
2019-11-07T04:08:35Z,11/06/19 23:08,4026922,0.051000000000000004,0.0,808,21.5,35.9,55,2.0
2019-11-07T04:09:48Z,11/06/19 23:09,4026930,0.03,0.0,798,21.5,35.9,55,2.0
2019-11-07T04:10:48Z,11/06/19 23:10,4026938,0.044,0.001,830,21.5,35.9,55,2.0
2019-11-07T04:12:05Z,11/06/19 23:12,4026947,0.06,0.0,812,21.5,35.9,55,2.0
2019-11-07T04:13:05Z,11/06/19 23:13,4026955,0.009,0.0,816,21.5,35.9,55,2.0
2019-11-07T04:14:05Z,11/06/19 23:14,4026963,0.05,0.001,806,21.5,35.8,55,2.0
2019-11-07T04:15:20Z,11/06/19 23:15,4026971,0.020999999999999998,0.0,818,21.5,35.8,55,2.0
2019-11-07T04:16:20Z,11/06/19 23:16,4026978,0.041999999999999996,0.0,811,21.5,35.8,55,2.0
2019-11-07T04:17:33Z,11/06/19 23:17,4026987,0.036,0.0,811,21.5,35.8,55,2.0
2019-11-07T04:18:33Z,11/06/19 23:18,4026996,0.033,0.0,804,21.5,35.8,55,2.0
2019-11-07T04:19:33Z,11/06/19 23:19,4027003,0.063,0.0,825,21.5,35.8,55,2.0
2019-11-07T04:20:33Z,11/06/19 23:20,4027011,0.024,0.0,858,21.6,35.8,55,2.0
2019-11-07T04:21:33Z,11/06/19 23:21,4027021,0.03,0.0,843,21.5,35.8,55,2.0
2019-11-07T04:22:49Z,11/06/19 23:22,4027031,0.033,0.0,804,21.6,35.7,55,2.0
2019-11-07T04:23:49Z,11/06/19 23:23,4027039,0.027000000000000003,0.0,823,21.5,35.7,55,3.0
2019-11-07T04:24:49Z,11/06/19 23:24,4027047,0.041999999999999996,0.0,787,21.6,35.7,55,2.0
2019-11-07T04:26:06Z,11/06/19 23:26,4027060,0.018,0.0,821,21.6,35.7,55,2.0
2019-11-07T04:27:06Z,11/06/19 23:27,4027068,0.024,0.0,813,21.6,35.7,55,3.0
2019-11-07T04:28:21Z,11/06/19 23:28,4027078,0.03,0.0,784,21.6,35.7,55,3.0
2019-11-07T04:29:21Z,11/06/19 23:29,4027087,0.020999999999999998,0.0,804,21.6,35.7,55,3.0
2019-11-07T04:30:21Z,11/06/19 23:30,4027096,0.051000000000000004,0.0,784,21.6,35.6,55,2.0
2019-11-07T04:31:21Z,11/06/19 23:31,4027104,0.018,0.0,813,21.6,35.6,55,3.0
2019-11-07T04:32:21Z,11/06/19 23:32,4027111,0.041999999999999996,0.0,794,21.6,35.6,55,3.0
2019-11-07T04:33:38Z,11/06/19 23:33,4027122,0.036,0.0,816,21.6,35.7,55,2.0
2019-11-07T04:34:38Z,11/06/19 23:34,4027131,0.039,0.0,856,21.6,35.7,55,2.0
2019-11-07T04:35:38Z,11/06/19 23:35,4027139,0.045,0.0,896,21.6,35.7,55,1.0
2019-11-07T04:36:53Z,11/06/19 23:36,4027151,0.051000000000000004,0.0,916,21.6,35.7,55,1.0
2019-11-07T04:37:53Z,11/06/19 23:37,4027160,0.051000000000000004,0.0,909,21.6,35.8,55,2.0
2019-11-07T04:39:08Z,11/06/19 23:39,4027170,0.03,0.0,886,21.6,35.7,55,0.0
2019-11-07T04:40:08Z,11/06/19 23:40,4027177,0.027000000000000003,0.0,914,21.6,35.7,55,0.0
2019-11-07T04:41:25Z,11/06/19 23:41,4027187,0.05,0.001,929,21.6,35.7,55,1.0
2019-11-07T04:42:25Z,11/06/19 23:42,4027196,0.039,0.0,901,21.6,35.7,55,1.0
2019-11-07T04:43:25Z,11/06/19 23:43,4027204,0.036,0.0,893,21.6,35.7,55,0.0
2019-11-07T04:44:25Z,11/06/19 23:44,4027213,0.014000000000000002,0.001,895,21.5,35.7,55,1.0
2019-11-07T04:45:25Z,11/06/19 23:45,4027222,0.036,0.0,918,21.5,35.7,55,0.0
2019-11-07T04:46:25Z,11/06/19 23:46,4027230,0.039,0.0,895,21.5,35.7,55,0.0
2019-11-07T04:47:25Z,11/06/19 23:47,4027239,0.039,0.0,895,21.5,35.7,55,0.0
2019-11-07T04:48:25Z,11/06/19 23:48,4027248,0.033,0.0,895,21.5,35.7,55,0.0
2019-11-07T04:49:25Z,11/06/19 23:49,4027256,0.036,0.0,867,21.5,35.7,55,0.0
2019-11-07T04:50:25Z,11/06/19 23:50,4027265,0.068,0.001,872,21.5,35.7,55,0.0
2019-11-07T04:51:40Z,11/06/19 23:51,4027274,0.03,0.0,894,21.5,35.7,55,0.0
2019-11-07T04:52:40Z,11/06/19 23:52,4027283,0.028999999999999998,0.001,874,21.5,35.6,55,0.0
2019-11-07T04:53:40Z,11/06/19 23:53,4027292,0.036,0.0,886,21.4,35.6,55,0.0
2019-11-07T04:54:57Z,11/06/19 23:54,4027303,0.020999999999999998,0.0,869,21.4,35.6,55,0.0
2019-11-07T04:55:57Z,11/06/19 23:55,4027313,0.020999999999999998,0.0,846,21.4,35.6,55,0.0
2019-11-07T04:56:57Z,11/06/19 23:56,4027320,0.006,0.0,866,21.4,35.6,55,0.0
2019-11-07T04:58:13Z,11/06/19 23:58,4027329,0.020999999999999998,0.0,856,21.4,35.6,55,0.0
2019-11-07T04:59:13Z,11/06/19 23:59,4027338,0.018,0.0,836,21.3,35.6,55,0.0
2019-11-07T05:00:13Z,11/07/19 00:00,4027347,0.036,0.0,843,21.3,35.6,55,0.0
2019-11-07T05:01:13Z,11/07/19 00:01,4027355,0.018,0.0,831,21.3,35.6,55,0.0
2019-11-07T05:02:13Z,11/07/19 00:02,4027363,0.033,0.0,833,21.3,35.6,55,0.0
2019-11-07T05:03:29Z,11/07/19 00:03,4027374,0.059,0.001,855,21.2,35.6,55,0.0
2019-11-07T05:04:29Z,11/07/19 00:04,4027382,0.012,0.0,843,21.2,35.6,55,0.0
2019-11-07T05:05:42Z,11/07/19 00:05,4027392,0.024,0.0,835,21.2,35.6,55,0.0
2019-11-07T05:06:42Z,11/07/19 00:06,4027400,0.063,0.0,808,21.2,35.5,55,0.0
2019-11-07T05:07:42Z,11/07/19 00:07,4027409,0.020999999999999998,0.0,820,21.2,35.5,55,0.0
2019-11-07T05:08:42Z,11/07/19 00:08,4027418,0.06,0.0,832,21.2,35.5,55,0.0
2019-11-07T05:09:42Z,11/07/19 00:09,4027427,0.051000000000000004,0.0,817,21.1,35.4,55,0.0
2019-11-07T05:10:59Z,11/07/19 00:10,4027438,0.039,0.0,817,21.1,35.4,55,0.0
2019-11-07T05:11:59Z,11/07/19 00:11,4027447,0.075,0.0,824,21.1,35.4,55,0.0
2019-11-07T05:12:59Z,11/07/19 00:12,4027456,0.054000000000000006,0.0,812,21.1,35.4,55,0.0
2019-11-07T05:13:59Z,11/07/19 00:13,4027465,0.048,0.0,797,21.0,35.4,55,0.0
2019-11-07T05:14:59Z,11/07/19 00:14,4027473,0.045,0.0,802,21.0,35.4,55,0.0
2019-11-07T05:16:16Z,11/07/19 00:16,4027483,0.036,0.0,816,21.0,35.3,55,0.0
2019-11-07T05:17:16Z,11/07/19 00:17,4027491,0.087,0.0,811,21.0,35.3,55,0.0
2019-11-07T05:18:16Z,11/07/19 00:18,4027500,0.056999999999999995,0.0,813,21.0,35.3,55,0.0
2019-11-07T05:19:16Z,11/07/19 00:19,4027508,0.054000000000000006,0.0,790,20.9,35.2,55,0.0
2019-11-07T05:20:16Z,11/07/19 00:20,4027516,0.066,0.0,806,20.9,35.2,55,0.0
2019-11-07T05:21:31Z,11/07/19 00:21,4027527,0.036,0.0,783,20.9,35.2,55,0.0
2019-11-07T05:22:31Z,11/07/19 00:22,4027535,0.072,0.0,796,20.9,35.2,55,0.0
2019-11-07T05:23:31Z,11/07/19 00:23,4027544,0.143,0.001,772,20.9,35.2,55,0.0
2019-11-07T05:24:31Z,11/07/19 00:24,4027551,0.036,0.0,806,20.8,35.2,55,1.0
2019-11-07T05:25:31Z,11/07/19 00:25,4027560,0.054000000000000006,0.0,796,20.8,35.1,55,0.0
2019-11-07T05:26:45Z,11/07/19 00:26,4027569,0.087,0.0,796,20.8,35.1,55,1.0
2019-11-07T05:27:45Z,11/07/19 00:27,4027577,0.056999999999999995,0.0,777,20.8,35.1,55,1.0
2019-11-07T05:28:45Z,11/07/19 00:28,4027586,0.06,0.0,784,20.8,35.0,55,1.0
2019-11-07T05:30:02Z,11/07/19 00:30,4027597,0.129,0.0,772,20.8,35.0,55,0.0
2019-11-07T05:31:02Z,11/07/19 00:31,4027606,0.051000000000000004,0.0,782,20.8,35.0,55,1.0
2019-11-07T05:32:02Z,11/07/19 00:32,4027615,0.072,0.0,778,20.8,35.0,55,0.0
2019-11-07T05:33:02Z,11/07/19 00:33,4027624,0.078,0.0,781,20.8,35.0,55,1.0
2019-11-07T05:34:02Z,11/07/19 00:34,4027633,0.123,0.0,771,20.8,35.0,55,0.0
2019-11-07T05:35:15Z,11/07/19 00:35,4027642,0.078,0.0,759,20.8,34.9,55,0.0
2019-11-07T05:36:15Z,11/07/19 00:36,4027651,0.087,0.0,783,20.8,34.9,55,1.0
2019-11-07T05:37:15Z,11/07/19 00:37,4027659,0.08,0.001,769,20.7,34.9,55,1.0
2019-11-07T05:38:15Z,11/07/19 00:38,4027668,0.08,0.001,783,20.7,34.9,55,0.0
2019-11-07T05:39:15Z,11/07/19 00:39,4027677,0.096,0.0,769,20.7,34.8,55,0.0
2019-11-07T05:40:31Z,11/07/19 00:40,4027686,0.123,0.0,797,20.7,34.8,55,0.0
2019-11-07T05:41:31Z,11/07/19 00:41,4027695,0.15,0.0,788,20.7,34.7,55,1.0
2019-11-07T05:42:31Z,11/07/19 00:42,4027704,0.21800000000000003,0.001,765,20.6,34.7,55,1.0
2019-11-07T05:43:47Z,11/07/19 00:43,4027713,0.11299999999999999,0.001,777,20.6,34.7,55,0.0
2019-11-07T05:44:47Z,11/07/19 00:44,4027722,0.15,0.0,777,20.6,34.7,55,1.0
2019-11-07T05:46:01Z,11/07/19 00:46,4027734,0.11399999999999999,0.0,780,20.6,34.7,55,0.0
2019-11-07T05:47:01Z,11/07/19 00:47,4027743,0.128,0.001,758,20.6,34.7,55,1.0
2019-11-07T05:48:01Z,11/07/19 00:48,4027751,0.15,0.0,782,20.6,34.7,55,1.0
2019-11-07T05:49:17Z,11/07/19 00:49,4027761,0.078,0.0,758,20.5,34.7,55,0.0
2019-11-07T05:50:17Z,11/07/19 00:50,4027770,0.065,0.001,773,20.5,34.7,55,1.0
2019-11-07T05:51:34Z,11/07/19 00:51,4027780,0.075,0.0,765,20.4,34.6,55,0.0
2019-11-07T05:52:34Z,11/07/19 00:52,4027788,0.13799999999999998,0.0,760,20.4,34.6,55,1.0
2019-11-07T05:53:34Z,11/07/19 00:53,4027797,0.078,0.0,769,20.4,34.6,55,0.0
2019-11-07T05:54:49Z,11/07/19 00:54,4027808,0.11599999999999999,0.001,776,20.4,34.6,55,0.0
2019-11-07T05:55:49Z,11/07/19 00:55,4027817,0.12,0.0,762,20.4,34.6,55,1.0
2019-11-07T05:57:05Z,11/07/19 00:57,4027827,0.17099999999999999,0.0,750,20.4,34.6,55,1.0
2019-11-07T05:58:05Z,11/07/19 00:58,4027836,0.174,0.0,760,20.4,34.6,55,1.0
2019-11-07T05:59:21Z,11/07/19 00:59,4027848,0.186,0.0,760,20.4,34.6,55,1.0
2019-11-07T06:00:21Z,11/07/19 01:00,4027855,0.16499999999999998,0.0,762,20.4,34.6,55,1.0
2019-11-07T06:01:36Z,11/07/19 01:01,4027866,0.123,0.0,759,20.4,34.5,55,2.0
2019-11-07T06:02:36Z,11/07/19 01:02,4027874,0.132,0.0,759,20.4,34.5,55,2.0
2019-11-07T06:03:36Z,11/07/19 01:03,4027882,0.12,0.0,754,20.4,34.4,55,1.0
2019-11-07T06:04:51Z,11/07/19 01:04,4027894,0.129,0.0,731,20.3,34.4,55,2.0
2019-11-07T06:05:51Z,11/07/19 01:05,4027901,0.09,0.0,740,20.3,34.4,55,1.0
2019-11-07T06:06:51Z,11/07/19 01:06,4027909,0.11399999999999999,0.0,742,20.3,34.4,55,2.0
2019-11-07T06:08:06Z,11/07/19 01:08,4027921,0.101,0.001,756,20.3,34.4,55,1.0
2019-11-07T06:09:06Z,11/07/19 01:09,4027929,0.126,0.0,747,20.3,34.4,55,1.0
2019-11-07T06:10:06Z,11/07/19 01:10,4027938,0.183,0.0,759,20.3,34.4,55,1.0
2019-11-07T06:11:22Z,11/07/19 01:11,4027948,0.13799999999999998,0.0,738,20.3,34.4,55,2.0
2019-11-07T06:12:22Z,11/07/19 01:12,4027956,0.141,0.0,740,20.3,34.3,55,1.0
2019-11-07T06:13:39Z,11/07/19 01:13,4027968,0.123,0.0,731,20.3,34.3,55,0.0
2019-11-07T06:14:39Z,11/07/19 01:14,4027976,0.19,0.002,737,20.3,34.3,55,1.0
2019-11-07T06:15:54Z,11/07/19 01:15,4027988,0.207,0.0,754,20.3,34.3,55,1.0
2019-11-07T06:16:54Z,11/07/19 01:16,4027996,0.11100000000000002,0.0,730,20.2,34.3,55,1.0
2019-11-07T06:17:54Z,11/07/19 01:17,4028005,0.153,0.0,739,20.2,34.2,55,2.0
2019-11-07T06:19:10Z,11/07/19 01:19,4028016,0.183,0.0,741,20.2,34.2,55,2.0
2019-11-07T06:20:10Z,11/07/19 01:20,4028025,0.11699999999999999,0.0,737,20.2,34.2,55,2.0
2019-11-07T06:21:31Z,11/07/19 01:21,4028035,0.147,0.0,716,20.2,34.2,55,2.0
2019-11-07T06:22:31Z,11/07/19 01:22,4028044,0.12,0.0,707,20.2,34.2,55,2.0
2019-11-07T06:23:44Z,11/07/19 01:23,4028053,0.129,0.0,725,20.2,34.2,55,2.0
2019-11-07T06:24:44Z,11/07/19 01:24,4028061,0.17099999999999999,0.0,732,20.1,34.2,55,2.0
2019-11-07T06:25:44Z,11/07/19 01:25,4028070,0.143,0.001,725,20.1,34.2,55,1.0
2019-11-07T06:27:00Z,11/07/19 01:27,4028081,0.177,0.0,719,20.1,34.1,55,1.0
2019-11-07T06:28:00Z,11/07/19 01:28,4028089,0.16799999999999998,0.0,720,20.1,34.1,55,2.0
2019-11-07T06:29:00Z,11/07/19 01:29,4028098,0.195,0.0,715,20.1,34.1,55,2.0
2019-11-07T06:30:00Z,11/07/19 01:30,4028107,0.183,0.0,718,20.1,34.1,55,1.0
2019-11-07T06:31:00Z,11/07/19 01:31,4028115,0.11399999999999999,0.0,702,20.1,34.1,55,2.0
2019-11-07T06:32:15Z,11/07/19 01:32,4028125,0.158,0.001,702,20.1,34.1,55,2.0
2019-11-07T06:33:15Z,11/07/19 01:33,4028134,0.13799999999999998,0.0,709,20.0,34.2,55,2.0
2019-11-07T06:34:15Z,11/07/19 01:34,4028142,0.16799999999999998,0.0,702,20.0,34.2,55,2.0
2019-11-07T06:35:15Z,11/07/19 01:35,4028150,0.11699999999999999,0.0,715,20.0,34.3,55,2.0
2019-11-07T06:36:15Z,11/07/19 01:36,4028157,0.08399999999999999,0.0,715,20.0,34.4,55,2.0
2019-11-07T06:37:15Z,11/07/19 01:37,4028167,0.11100000000000002,0.0,713,20.0,34.4,55,0.0
2019-11-07T06:38:15Z,11/07/19 01:38,4028176,0.093,0.0,702,20.0,34.5,55,0.0
2019-11-07T06:39:32Z,11/07/19 01:39,4028185,0.087,0.0,702,20.0,34.6,55,0.0
2019-11-07T06:40:32Z,11/07/19 01:40,4028194,0.045,0.0,713,20.0,34.6,55,0.0
2019-11-07T06:41:32Z,11/07/19 01:41,4028202,0.144,0.0,713,20.1,34.6,55,0.0
2019-11-07T06:42:49Z,11/07/19 01:42,4028212,0.06899999999999999,0.0,693,20.1,34.6,55,0.0
2019-11-07T06:43:49Z,11/07/19 01:43,4028217,0.08399999999999999,0.0,729,20.1,34.7,55,0.0
2019-11-07T06:44:49Z,11/07/19 01:44,4028224,0.041999999999999996,0.0,715,20.1,34.7,55,0.0
2019-11-07T06:46:05Z,11/07/19 01:46,4028235,0.11100000000000002,0.0,729,20.1,34.7,55,0.0
2019-11-07T06:47:05Z,11/07/19 01:47,4028243,0.129,0.0,693,20.1,34.7,55,0.0
2019-11-07T06:48:05Z,11/07/19 01:48,4028252,0.072,0.0,718,20.1,34.7,55,0.0
2019-11-07T06:49:21Z,11/07/19 01:49,4028264,0.089,0.001,724,20.1,34.7,55,0.0
2019-11-07T06:50:21Z,11/07/19 01:50,4028271,0.10500000000000001,0.0,716,20.1,34.7,55,0.0
2019-11-07T06:51:21Z,11/07/19 01:51,4028279,0.10500000000000001,0.0,707,20.1,34.7,55,0.0
2019-11-07T06:52:36Z,11/07/19 01:52,4028290,0.11100000000000002,0.0,728,20.2,34.7,55,0.0
2019-11-07T06:53:36Z,11/07/19 01:53,4028298,0.10800000000000001,0.0,730,20.2,34.6,55,0.0
2019-11-07T06:54:53Z,11/07/19 01:54,4028312,0.096,0.0,719,20.2,34.6,55,0.0
2019-11-07T06:55:53Z,11/07/19 01:55,4028320,0.054000000000000006,0.0,714,20.3,34.6,55,0.0
2019-11-07T06:56:53Z,11/07/19 01:56,4028329,0.06,0.0,728,20.3,34.6,55,0.0
2019-11-07T06:58:10Z,11/07/19 01:58,4028340,0.123,0.0,726,20.3,34.5,55,0.0
2019-11-07T06:59:09Z,11/07/19 01:59,4028347,0.066,0.0,724,20.3,34.5,55,0.0
2019-11-07T07:00:25Z,11/07/19 02:00,4028356,0.048,0.0,715,20.3,34.5,55,0.0
2019-11-07T07:01:25Z,11/07/19 02:01,4028364,0.075,0.0,726,20.3,34.4,55,0.0
2019-11-07T07:02:25Z,11/07/19 02:02,4028371,0.093,0.0,731,20.3,34.4,55,0.0
2019-11-07T07:03:25Z,11/07/19 02:03,4028378,0.075,0.0,715,20.3,34.5,55,0.0
2019-11-07T07:04:25Z,11/07/19 02:04,4028385,0.089,0.001,711,20.4,34.4,55,0.0
2019-11-07T07:05:25Z,11/07/19 02:05,4028391,0.06899999999999999,0.0,731,20.4,34.4,55,0.0
2019-11-07T07:06:39Z,11/07/19 02:06,4028401,0.048,0.0,747,20.4,34.3,55,0.0
2019-11-07T07:07:39Z,11/07/19 02:07,4028408,0.053000000000000005,0.001,731,20.4,34.3,55,0.0
2019-11-07T07:08:55Z,11/07/19 02:08,4028420,0.10500000000000001,0.0,727,20.4,34.3,55,0.0
2019-11-07T07:09:55Z,11/07/19 02:09,4028427,0.078,0.0,736,20.4,34.3,55,0.0
2019-11-07T07:11:09Z,11/07/19 02:11,4028436,0.093,0.0,727,20.4,34.2,55,0.0
2019-11-07T07:12:09Z,11/07/19 02:12,4028444,0.072,0.0,734,20.4,34.1,55,0.0
2019-11-07T07:13:24Z,11/07/19 02:13,4028453,0.129,0.0,725,20.4,34.1,55,0.0
2019-11-07T07:14:24Z,11/07/19 02:14,4028461,0.06,0.0,713,20.4,34.1,55,0.0
2019-11-07T07:15:24Z,11/07/19 02:15,4028469,0.11100000000000002,0.0,727,20.4,34.1,55,0.0
2019-11-07T07:16:38Z,11/07/19 02:16,4028477,0.12,0.0,720,20.4,34.0,55,0.0
2019-11-07T07:17:38Z,11/07/19 02:17,4028485,0.051000000000000004,0.0,743,20.4,34.0,55,0.0
2019-11-07T07:18:38Z,11/07/19 02:18,4028493,0.119,0.001,713,20.4,34.0,55,0.0
2019-11-07T07:19:54Z,11/07/19 02:19,4028503,0.10500000000000001,0.0,731,20.4,34.0,55,0.0
2019-11-07T07:20:54Z,11/07/19 02:20,4028510,0.101,0.001,711,20.4,34.0,55,0.0
2019-11-07T07:22:10Z,11/07/19 02:22,4028519,0.10200000000000001,0.0,717,20.4,33.9,55,0.0
2019-11-07T07:23:10Z,11/07/19 02:23,4028527,0.092,0.001,717,20.4,33.9,55,0.0
2019-11-07T07:24:10Z,11/07/19 02:24,4028534,0.144,0.0,711,20.3,33.9,55,0.0
2019-11-07T07:25:25Z,11/07/19 02:25,4028544,0.122,0.001,708,20.3,33.9,55,0.0
2019-11-07T07:26:25Z,11/07/19 02:26,4028552,0.129,0.0,717,20.3,33.8,55,0.0
2019-11-07T07:27:41Z,11/07/19 02:27,4028560,0.13799999999999998,0.0,704,20.3,33.8,55,0.0
2019-11-07T07:28:41Z,11/07/19 02:28,4028568,0.135,0.0,715,20.3,33.8,55,0.0
2019-11-07T07:29:58Z,11/07/19 02:29,4028578,0.11699999999999999,0.0,715,20.3,33.8,55,0.0
2019-11-07T07:30:58Z,11/07/19 02:30,4028586,0.159,0.0,724,20.3,33.7,55,0.0
2019-11-07T07:31:58Z,11/07/19 02:31,4028593,0.09,0.0,703,20.3,33.7,55,0.0
2019-11-07T07:33:15Z,11/07/19 02:33,4028604,0.26,0.001,705,20.3,33.7,55,1.0
2019-11-07T07:34:15Z,11/07/19 02:34,4028612,0.145,0.002,698,20.2,33.7,55,0.0
2019-11-07T07:35:31Z,11/07/19 02:35,4028620,0.174,0.0,716,20.2,33.6,55,1.0
2019-11-07T07:36:31Z,11/07/19 02:36,4028628,0.192,0.0,725,20.2,33.6,55,0.0
2019-11-07T07:37:31Z,11/07/19 02:37,4028636,0.177,0.0,716,20.1,33.6,55,0.0
2019-11-07T07:38:44Z,11/07/19 02:38,4028644,0.123,0.0,705,20.1,33.6,55,1.0
2019-11-07T07:39:44Z,11/07/19 02:39,4028652,0.15,0.0,707,20.1,33.6,55,1.0
2019-11-07T07:41:01Z,11/07/19 02:41,4028663,0.11100000000000002,0.0,702,20.1,33.7,55,1.0
2019-11-07T07:42:01Z,11/07/19 02:42,4028669,0.096,0.0,702,20.1,33.7,55,0.0
2019-11-07T07:43:01Z,11/07/19 02:43,4028676,0.129,0.0,697,20.1,33.8,55,0.0
2019-11-07T07:44:01Z,11/07/19 02:44,4028683,0.056999999999999995,0.0,713,20.1,33.9,55,0.0
2019-11-07T07:45:01Z,11/07/19 02:45,4028691,0.153,0.0,706,20.1,33.9,55,1.0
2019-11-07T07:46:01Z,11/07/19 02:46,4028699,0.129,0.0,697,20.1,33.9,55,0.0
2019-11-07T07:47:16Z,11/07/19 02:47,4028708,0.122,0.001,686,20.1,34.0,55,0.0
2019-11-07T07:48:16Z,11/07/19 02:48,4028716,0.093,0.0,693,20.1,34.0,55,0.0
2019-11-07T07:49:33Z,11/07/19 02:49,4028726,0.13999999999999999,0.001,686,20.1,34.1,55,0.0
2019-11-07T07:50:33Z,11/07/19 02:50,4028733,0.099,0.0,697,20.1,34.1,55,0.0
2019-11-07T07:51:33Z,11/07/19 02:51,4028741,0.123,0.0,702,20.1,34.1,55,0.0
2019-11-07T07:52:33Z,11/07/19 02:52,4028748,0.093,0.0,714,20.1,34.1,55,0.0
2019-11-07T07:53:33Z,11/07/19 02:53,4028755,0.087,0.0,719,20.1,34.1,55,0.0
2019-11-07T07:54:47Z,11/07/19 02:54,4028765,0.09,0.0,714,20.1,34.1,55,0.0
2019-11-07T07:55:47Z,11/07/19 02:55,4028773,0.06899999999999999,0.0,707,20.2,34.1,55,0.0
2019-11-07T07:57:04Z,11/07/19 02:57,4028782,0.129,0.0,723,20.2,34.1,55,0.0
2019-11-07T07:58:04Z,11/07/19 02:58,4028790,0.099,0.0,705,20.2,34.1,55,0.0
2019-11-07T07:59:20Z,11/07/19 02:59,4028798,0.153,0.0,716,20.2,34.1,55,0.0
2019-11-07T08:00:20Z,11/07/19 03:00,4028806,0.101,0.001,723,20.3,34.1,55,0.0
2019-11-07T08:01:36Z,11/07/19 03:01,4028815,0.096,0.0,707,20.3,34.1,55,0.0
2019-11-07T08:02:36Z,11/07/19 03:02,4028823,0.12,0.0,719,20.3,34.0,55,0.0
2019-11-07T08:03:36Z,11/07/19 03:03,4028831,0.068,0.001,717,20.3,34.0,55,0.0
2019-11-07T08:04:36Z,11/07/19 03:04,4028839,0.10200000000000001,0.0,704,20.3,34.0,55,0.0
2019-11-07T08:05:36Z,11/07/19 03:05,4028846,0.10800000000000001,0.0,720,20.3,33.9,55,0.0
2019-11-07T08:07:04Z,11/07/19 03:07,4028856,0.11399999999999999,0.0,706,20.3,33.9,55,0.0
2019-11-07T08:08:04Z,11/07/19 03:08,4028864,0.10800000000000001,0.0,715,20.3,33.9,55,0.0
2019-11-07T08:09:04Z,11/07/19 03:09,4028872,0.096,0.0,720,20.3,33.9,55,0.0
2019-11-07T08:10:04Z,11/07/19 03:10,4028879,0.087,0.0,720,20.3,33.9,55,0.0
2019-11-07T08:11:04Z,11/07/19 03:11,4028887,0.099,0.0,722,20.4,33.9,55,0.0
2019-11-07T08:12:20Z,11/07/19 03:12,4028895,0.10800000000000001,0.0,724,20.4,33.8,55,0.0
2019-11-07T08:13:20Z,11/07/19 03:13,4028903,0.122,0.001,706,20.4,33.8,55,0.0
2019-11-07T08:14:20Z,11/07/19 03:14,4028912,0.10200000000000001,0.0,715,20.4,33.8,55,0.0
2019-11-07T08:15:20Z,11/07/19 03:15,4028919,0.096,0.0,706,20.4,33.8,55,0.0
2019-11-07T08:16:20Z,11/07/19 03:16,4028927,0.11100000000000002,0.0,711,20.4,33.7,55,0.0
2019-11-07T08:17:38Z,11/07/19 03:17,4028935,0.08399999999999999,0.0,697,20.4,33.7,55,0.0
2019-11-07T08:18:38Z,11/07/19 03:18,4028943,0.081,0.0,726,20.4,33.6,55,0.0
2019-11-07T08:19:38Z,11/07/19 03:19,4028951,0.09,0.0,699,20.4,33.6,55,0.0
2019-11-07T08:20:55Z,11/07/19 03:20,4028960,0.095,0.001,711,20.4,33.6,55,0.0
2019-11-07T08:21:55Z,11/07/19 03:21,4028968,0.173,0.001,708,20.4,33.6,55,0.0
2019-11-07T08:23:12Z,11/07/19 03:23,4028978,0.129,0.0,722,20.4,33.6,55,0.0
2019-11-07T08:24:12Z,11/07/19 03:24,4028985,0.096,0.0,726,20.3,33.5,55,0.0
2019-11-07T08:25:29Z,11/07/19 03:25,4028995,0.072,0.0,708,20.3,33.5,55,0.0
2019-11-07T08:26:29Z,11/07/19 03:26,4029002,0.16799999999999998,0.0,706,20.3,33.5,55,0.0
2019-11-07T08:27:29Z,11/07/19 03:27,4029009,0.15,0.0,690,20.3,33.4,55,0.0
2019-11-07T08:28:29Z,11/07/19 03:28,4029016,0.11100000000000002,0.0,697,20.3,33.4,55,0.0
2019-11-07T08:29:45Z,11/07/19 03:29,4029025,0.15,0.0,690,20.3,33.4,55,0.0
2019-11-07T08:30:46Z,11/07/19 03:30,4029033,0.126,0.0,713,20.3,33.4,55,0.0
2019-11-07T08:32:03Z,11/07/19 03:32,4029045,0.126,0.0,699,20.3,33.4,55,0.0
2019-11-07T08:33:03Z,11/07/19 03:33,4029053,0.10800000000000001,0.0,716,20.3,33.4,55,0.0
2019-11-07T08:34:19Z,11/07/19 03:34,4029061,0.23399999999999999,0.0,703,20.2,33.3,55,1.0
2019-11-07T08:35:19Z,11/07/19 03:35,4029069,0.10300000000000001,0.002,716,20.2,33.3,55,0.0
2019-11-07T08:36:19Z,11/07/19 03:36,4029077,0.16399999999999998,0.001,719,20.2,33.3,55,0.0
2019-11-07T08:37:37Z,11/07/19 03:37,4029085,0.146,0.001,698,20.2,33.3,55,0.0
2019-11-07T08:38:37Z,11/07/19 03:38,4029093,0.183,0.0,701,20.1,33.2,55,0.0
2019-11-07T08:39:53Z,11/07/19 03:39,4029102,0.12,0.0,698,20.1,33.3,55,0.0
2019-11-07T08:40:53Z,11/07/19 03:40,4029110,0.152,0.001,686,20.1,33.3,55,0.0
2019-11-07T08:41:53Z,11/07/19 03:41,4029118,0.10200000000000001,0.0,702,20.1,33.3,55,0.0
2019-11-07T08:42:53Z,11/07/19 03:42,4029126,0.126,0.0,688,20.1,33.3,55,1.0
2019-11-07T08:44:09Z,11/07/19 03:44,4029135,0.10500000000000001,0.0,704,20.1,33.4,55,1.0
2019-11-07T08:45:09Z,11/07/19 03:45,4029143,0.174,0.0,684,20.1,33.4,55,0.0
2019-11-07T08:46:26Z,11/07/19 03:46,4029151,0.096,0.0,682,20.1,33.5,55,0.0
2019-11-07T08:47:26Z,11/07/19 03:47,4029159,0.09,0.0,704,20.1,33.5,55,0.0
2019-11-07T08:48:42Z,11/07/19 03:48,4029167,0.087,0.0,706,20.1,33.5,55,0.0
2019-11-07T08:49:42Z,11/07/19 03:49,4029175,0.11699999999999999,0.0,688,20.1,33.6,55,0.0
2019-11-07T08:51:00Z,11/07/19 03:51,4029185,0.10200000000000001,0.0,682,20.1,33.6,55,0.0
2019-11-07T08:52:00Z,11/07/19 03:52,4029193,0.096,0.0,691,20.1,33.6,55,0.0
2019-11-07T08:53:00Z,11/07/19 03:53,4029201,0.051000000000000004,0.0,695,20.1,33.7,55,0.0
2019-11-07T08:54:00Z,11/07/19 03:54,4029209,0.075,0.0,684,20.1,33.7,55,0.0
2019-11-07T08:54:59Z,11/07/19 03:54,4029217,0.129,0.0,686,20.1,33.7,55,0.0
2019-11-07T08:56:15Z,11/07/19 03:56,4029225,0.093,0.0,723,20.1,33.7,55,0.0
2019-11-07T08:57:15Z,11/07/19 03:57,4029233,0.087,0.0,689,20.1,33.7,55,0.0
2019-11-07T08:58:15Z,11/07/19 03:58,4029240,0.10800000000000001,0.0,703,20.1,33.7,55,0.0
2019-11-07T08:59:15Z,11/07/19 03:59,4029247,0.093,0.0,710,20.1,33.7,55,0.0
2019-11-07T09:00:15Z,11/07/19 04:00,4029255,0.129,0.0,698,20.2,33.7,55,0.0
2019-11-07T09:01:15Z,11/07/19 04:01,4029263,0.13799999999999998,0.0,703,20.2,33.7,55,0.0
2019-11-07T09:02:15Z,11/07/19 04:02,4029270,0.093,0.0,707,20.2,33.7,55,0.0
2019-11-07T09:03:15Z,11/07/19 04:03,4029278,0.09,0.0,701,20.2,33.7,55,0.0
2019-11-07T09:04:30Z,11/07/19 04:04,4029288,0.11399999999999999,0.0,707,20.3,33.7,55,0.0
2019-11-07T09:05:30Z,11/07/19 04:05,4029296,0.063,0.0,714,20.3,33.6,55,0.0
2019-11-07T09:06:30Z,11/07/19 04:06,4029303,0.06,0.0,706,20.3,33.6,55,0.0
2019-11-07T09:07:46Z,11/07/19 04:07,4029312,0.11699999999999999,0.0,719,20.3,33.5,55,0.0
2019-11-07T09:08:46Z,11/07/19 04:08,4029320,0.093,0.0,706,20.3,33.5,55,0.0